Probability
1 0 0 0 0 0 0 1 1 1 0 0 0 0 0 0 0 0 1 2 2 3 3 3 4 6 6 6 6 5 4 4 6 6 6 6 6 6 6 6 5 3 2
1 0 0 0 0 0 0 0 0 0 0 0 0 1 1 0 0 0 0 1 1 2 2 2 3 4 5 5 4 4 3 4 5 6 6 6 6 6 6 6 5 4 2
1 0 0 0 0 0 0 0 0 0 0 0 0 1 1 0 0 0 0 0 0 1 1 1 1 2 3 4 3 3 3 3 4 6 6 6 6 6 6 6 5 4 3
1 0 0 0 0 0 0 0 0 0 0 0 0 1 1 0 0 0 0 0 0 0 0 0 0 0 1 2 3 3 4 4 5 5 6 6 6 6 6 5 4 3 3
2 1 0 0 0 0 0 0 0 0 0 0 0 0 0 0 0 0 0 0 0 0 0 0 0 0 0 1 2 3 5 6 5 4 3 4 5 6 6 6 5 4 3
2 1 0 1 0 0 0 0 0 0 0 0 0 0 0 0 0 0 0 0 0 0 0 0 0 0 0 0 1 1 3 4 3 2 1 1 2 5 5 5 4 3 2
1 0 0 0 0 0 1 1 1 0 0 0 0 0 0 0 0 0 0 0 0 0 0 1 1 1 0 0 0 0 1 1 1 1 0 0 1 3 3 2 1 1 1
1 1 0 0 0 0 1 2 1 1 1 0 0 0 0 0 0 0 0 0 0 0 1 2 2 1 0 0 0 0 1 0 0 0 0 0 1 1 1 0 0 0 0
2 1 0 0 0 0 1 2 2 2 1 0 0 0 0 0 0 0 0 0 0 0 1 1 1 0 0 0 0 0 0 0 0 0 0 0 0 1 1 0 0 0 0
1 1 0 0 0 0 0 1 2 2 1 0 0 0 0 0 0 1 2 2 2 1 0 0 0 0 0 0 0 0 0 0 0 0 0 0 0 1 1 1 0 0 0
0 0 0 0 0 0 0 0 1 1 0 0 0 0 0 0 1 2 3 3 3 2 1 1 1 0 0 0 0 0 0 0 0 0 0 0 0 1 2 2 1 0 0
0 0 0 0 0 0 0 0 0 0 0 0 0 0 0 0 1 3 3 3 3 2 2 2 1 0 0 0 0 0 0 0 0 0 0 0 0 0 1 1 1 0 0
0 0 0 0 0 0 0 0 0 0 0 0 0 0 0 1 2 3 3 3 2 1 1 1 1 0 0 0 0 0 0 0 0 0 0 0 0 0 0 0 1 1 0
0 0 0 0 0 0 0 0 0 0 0 0 0 0 0 1 2 3 3 2 1 0 0 0 0 0 0 0 0 0 0 0 0 0 0 0 0 0 0 0 1 1 1
0 0 0 0 0 0 0 0 0 0 0 0 0 0 0 1 2 2 2 1 0 0 0 0 0 0 0 0 0 0 0 0 0 0 0 0 0 0 0 1 2 1 1
0 0 0 0 0 0 0 0 0 0 0 0 0 0 0 1 1 1 1 0 0 0 0 0 0 0 0 0 0 0 0 0 0 0 0 0 0 0 0 1 2 2 1
1 0 0 0 0 0 0 1 1 1 0 0 0 0 0 1 0 0 0 0 0 0 0 0 0 0 0 0 0 0 0 0 0 0 0 0 0 0 0 1 2 2 1
1 1 1 1 1 1 1 2 2 2 1 0 0 0 0 0 0 0 0 0 1 1 1 1 0 0 0 0 0 0 0 0 0 0 0 0 0 0 0 0 1 1 0
1 1 1 2 2 2 2 2 2 2 1 0 0 0 0 0 0 0 0 1 2 2 2 2 1 1 0 0 0 0 0 0 0 0 0 0 0 0 0 0 0 0 0
0 0 1 2 2 2 2 1 1 1 0 0 0 0 0 0 0 0 0 2 3 3 3 3 3 2 1 0 0 0 0 0 0 0 0 0 0 0 0 0 0 0 0
1 0 0 1 1 1 1 0 0 0 0 0 0 0 0 0 0 0 0 1 2 2 2 2 2 2 1 0 0 0 0 0 0 0 0 0 0 0 0 0 0 0 0
2 1 0 0 0 1 1 1 0 0 0 0 0 0 0 0 0 0 0 0 1 1 1 1 1 1 0 0 0 0 0 0 0 0 0 0 0 0 0 0 0 0 0
3 2 0 0 0 2 3 2 0 0 0 0 0 0 0 0 0 0 0 0 0 0 0 0 0 0 0 0 0 0 0 0 0 0 0 0 0 0 0 0 0 0 0
4 3 1 1 1 3 4 3 1 0 0 0 0 0 0 0 0 0 0 0 0 0 0 0 0 0 0 0 0 0 0 0 0 0 0 0 0 0 0 0 0 0 0
7 6 3 2 4 5 6 5 4 2 1 0 0 0 0 0 0 0 0 0 0 0 0 0 0 0 0 0 0 0 0 0 0 0 0 0 0 0 0 0 0 0 0
10 9 5 3 5 7 7 7 6 4 2 1 0 0 0 0 0 0 0 0 0 0 0 0 0 0 0 0 0 0 0 0 0 0 0 0 0 0 0 0 0 0 0
Wind_Speed
6 7 8 9 9 9 10 10 9 10 10 10 10 10 10 10 10 10 10 10 10 10 10 10 11 11 11 12 12 11 10 9 9 9 9 8 8 8 8 7 6 5 8
8 8 9 9 9 9 9 9 10 10 10 10 10 10 10 10 10 10 10 10 10 10 10 10 11 11 11 11 11 10 9 8 7 7 7 7 8 8 8 7 7 5 7
8 8 9 9 9 9 10 10 10 10 10 10 10 10 10 10 10 10 10 10 11 11 11 10 11 11 11 10 10 9 8 6 6 6 5 4 6 8 8 8 7 7 7
8 8 8 9 9 9 9 9 10 10 10 10 10 10 10 10 10 10 10 10 11 11 10 10 10 10 10 10 10 9 7 6 6 5 4 4 5 9 9 8 7 7 6
8 9 8 9 9 9 9 9 9 9 10 10 10 10 10 10 10 10 10 11 11 11 10 10 10 10 10 10 10 9 7 7 7 6 5 6 5 8 9 8 8 8 7
9 9 8 9 9 9 8 8 8 9 10 10 10 10 10 10 10 10 11 11 11 11 11 10 10 10 10 10 9 9 9 8 7 5 6 6 5 9 9 9 8 8 8
8 8 7 9 9 9 9 8 9 9 9 10 10 10 10 10 10 10 10 11 11 11 11 11 10 10 9 9 8 8 8 7 5 5 6 6 6 9 9 9 8 8 8
8 8 8 9 9 9 9 9 10 10 10 10 9 9 9 9 9 10 10 10 10 11 11 10 10 9 9 8 8 8 8 7 6 7 6 6 9 9 9 9 8 8 8
7 7 6 6 7 8 9 9 10 10 9 9 8 8 8 8 8 9 9 9 9 10 10 9 9 9 8 7 7 7 7 7 5 4 7 5 8 9 9 9 8 8 8
6 6 5 5 5 5 6 8 8 8 8 7 6 6 6 6 7 8 8 8 8 8 8 7 7 7 7 6 5 5 5 4 5 5 4 6 10 10 9 9 8 8 9
5 5 5 4 4 5 5 6 5 6 5 4 4 4 4 2 3 4 7 7 7 6 5 5 4 4 4 3 3 3 3 3 5 4 4 9 10 9 9 8 8 8 9
4 4 4 4 4 4 4 4 2 3 2 1 2 2 2 2 3 5 6 6 5 4 3 3 2 2 1 1 1 2 2 4 4 4 5 9 9 9 9 9 9 9 9
4 3 3 4 4 4 3 2 1 2 1 1 2 2 1 2 3 3 2 2 2 2 1 2 1 0 1 2 2 2 3 4 3 4 5 9 8 8 8 8 9 9 9
4 4 4 3 4 4 3 2 2 2 2 2 2 3 2 2 2 2 2 1 1 1 1 1 0 1 2 2 3 3 4 3 3 3 4 8 8 8 8 8 8 9 9
5 4 3 3 4 3 3 2 3 2 2 3 2 3 4 3 2 2 2 2 2 1 1 2 2 3 3 3 3 3 3 4 4 3 3 7 7 7 7 7 8 8 8
5 5 3 3 3 4 3 3 3 3 3 3 3 3 3 3 3 2 2 2 2 2 2 2 3 3 3 3 3 3 3 3 3 3 4 4 6 6 6 6 7 7 8
5 5 4 3 4 4 4 3 3 3 3 3 3 4 4 4 3 3 2 2 2 2 3 3 4 3 3 3 3 3 2 2 2 3 3 3 3 4 5 5 6 7 7
5 6 4 4 4 4 4 3 2 3 3 3 3 3 4 5 5 4 3 2 3 3 3 3 3 3 3 3 2 2 2 2 2 2 2 3 3 3 4 5 5 6 7
5 6 5 4 3 4 4 3 3 3 3 3 2 2 3 4 5 4 3 3 3 3 3 3 3 2 2 2 2 1 1 1 2 2 2 3 3 3 3 4 5 6 6
4 6 6 4 4 4 3 3 3 3 3 3 3 3 3 3 4 4 3 4 4 3 3 3 3 3 2 1 2 2 1 1 1 2 2 2 2 2 3 3 2 3 5
5 5 6 5 4 3 2 2 2 2 2 2 2 2 3 3 3 3 3 3 3 3 3 3 2 3 2 1 2 2 2 1 2 2 2 2 2 2 2 2 1 1 2
5 5 5 5 5 4 3 2 2 2 2 2 1 2 2 3 3 2 2 2 2 2 3 3 2 2 2 2 1 1 1 2 3 2 2 2 2 2 2 2 2 2 2
5 5 4 5 5 5 4 2 2 2 1 1 1 1 1 2 2 2 2 2 2 2 1 2 2 2 1 2 2 1 1 0 2 2 1 2 2 2 2 1 2 3 3
6 5 5 5 5 5 5 3 3 2 2 2 2 1 1 1 2 2 2 2 2 1 1 1 2 1 1 1 2 2 1 0 1 1 2 1 2 2 2 2 2 2 3
7 5 4 4 4 4 4 4 3 2 2 1 2 2 1 1 1 2 1 1 2 1 1 1 2 2 1 0 0 1 2 2 1 1 1 1 1 1 1 1 1 2 2
5 5 4 4 3 3 3 4 3 3 2 3 2 2 1 1 1 1 1 2 1 1 1 1 1 1 1 1 1 0 0 0 1 0 1 1 1 1 1 1 1 1 1
Wind_Direction
86 87 80 77 71 65 65 65 63 61 60 58 58 60 63 63 63 64 64 65 65 64 63 59 57 57 55 56 62 77 88 91 91 89 87 86 84 81 78 75 70 69 74
96 93 82 81 74 66 64 65 64 61 59 59 61 65 66 67 67 66 66 65 66 66 66 62 59 59 58 57 60 68 83 89 92 95 94 92 87 83 77 72 64 67 71
94 97 87 83 77 69 67 67 64 61 61 60 62 66 67 69 70 70 70 68 69 68 67 65 64 64 63 62 62 64 71 78 81 87 90 95 92 83 75 71 69 70 73
96 90 85 85 79 73 69 68 66 63 63 63 62 64 68 71 71 70 71 70 70 69 69 68 68 66 65 63 63 62 64 67 69 66 75 74 78 81 75 71 68 72 73
88 87 87 85 80 75 71 70 69 67 65 64 65 65 67 70 72 71 69 70 69 68 67 67 68 66 65 65 63 58 62 60 59 60 64 66 67 73 69 66 63 64 65
91 92 90 87 82 77 74 74 77 81 76 73 71 71 71 71 75 76 73 69 67 65 65 66 67 66 66 66 62 56 52 53 51 65 66 67 68 69 65 63 62 61 61
95 97 97 94 86 82 78 73 79 87 87 83 80 79 77 74 75 78 77 74 69 67 66 66 66 64 65 65 60 53 48 52 60 67 66 65 65 68 65 63 59 59 57
98 100 103 102 96 90 81 78 85 89 89 86 84 84 83 79 76 78 79 77 73 71 69 68 66 65 65 64 59 51 44 44 58 67 68 65 67 68 64 59 59 57 55
100 102 107 114 106 100 90 84 87 88 88 89 91 91 90 89 85 86 82 82 79 76 74 72 69 66 66 66 61 52 42 42 49 59 66 64 67 69 64 61 59 57 55
101 102 104 112 115 112 102 94 93 93 93 97 103 108 107 102 99 99 95 90 87 84 81 79 74 69 66 67 61 48 34 28 65 63 63 69 69 66 60 59 61 59 55
91 98 103 107 112 110 111 107 107 107 107 118 122 127 131 132 125 112 99 101 93 91 89 86 83 77 73 72 70 53 32 64 70 70 64 72 71 66 59 56 60 60 60
108 102 106 105 98 97 98 113 123 109 123 139 129 150 177 135 106 101 118 114 110 103 100 100 103 102 104 107 99 71 55 66 72 77 74 76 72 67 62 58 62 63 63
115 101 95 99 105 101 99 104 92 98 110 68 54 56 102 102 101 105 126 122 127 130 126 116 119 191 122 84 83 88 73 66 69 73 80 82 78 72 69 64 63 60 60
109 102 99 101 104 103 99 92 78 66 60 47 33 30 68 90 90 86 82 80 88 78 53 86 313 43 63 73 78 80 81 82 79 79 87 88 80 71 70 67 67 60 56
119 106 92 87 85 84 81 84 83 66 54 52 27 28 53 70 82 79 79 67 53 41 41 24 36 45 43 49 56 63 69 90 98 92 92 95 89 80 76 71 70 63 58
126 120 109 101 96 98 90 84 79 76 64 48 26 23 48 59 71 71 67 57 52 42 24 36 42 45 45 47 45 57 61 64 86 107 108 100 96 92 85 81 78 71 63
127 125 124 107 86 86 80 75 77 73 69 54 31 15 34 42 53 59 57 43 36 45 38 34 36 39 42 43 32 40 54 64 73 82 108 114 106 98 89 83 84 80 71
131 126 119 110 97 87 83 77 77 78 73 62 42 20 28 35 40 48 44 36 32 42 44 45 42 33 32 33 19 19 36 39 49 73 93 109 104 96 97 93 84 80 74
129 130 129 125 113 97 91 87 72 73 70 61 49 28 26 34 41 48 39 36 35 42 39 37 41 39 33 29 6 26 43 39 24 35 60 89 99 103 103 104 102 89 74
139 132 134 124 119 109 98 86 75 68 68 65 54 34 33 33 39 42 39 34 37 44 39 36 34 29 32 16 11 26 22 54 39 34 42 53 66 91 97 93 107 106 91
148 144 138 136 128 118 106 102 99 92 82 72 63 52 48 52 47 49 42 37 41 41 32 32 39 20 13 14 30 10 358 24 64 52 50 51 52 59 87 97 101 107 114
151 149 145 142 134 125 118 117 120 110 102 101 71 41 45 55 48 52 57 56 57 51 28 29 41 22 356 4 21 28 1 2 7 40 57 49 38 30 58 81 94 87 88
154 154 146 142 137 132 131 125 118 101 98 99 113 71 44 58 53 44 47 56 56 61 44 33 30 39 7 346 11 49 71 310 326 353 42 47 29 26 22 20 73 78 86
157 155 155 146 146 143 137 140 143 148 158 158 147 137 112 91 78 54 39 48 50 48 42 25 35 30 54 357 354 11 37 103 113 324 335 24 32 30 13 15 57 77 79
156 156 157 148 139 136 144 150 152 153 146 135 122 112 115 100 94 89 90 66 51 40 37 24 24 11 37 46 357 342 346 353 350 154 286 324 351 358 7 356 39 80 85
133 137 138 131 130 136 153 149 154 151 144 126 115 124 121 90 58 51 65 72 64 35 28 26 17 7 357 2 350 359 351 341 311 321 254 273 283 282 306 353 12 70 113